Moriarty, NM

11:00 PM MDT on August 23, 2016 (GMT -0600)
Moriarty

Weather History for K0E0 - July, 2013

Change the Weather History Date:

Wednesday, July 10, 2013

  Actual Average (KABQ) Record (KABQ)
Temperature  
Mean Temperature 73 °F 79 °F  
Max Temperature 88 °F 91 °F 103 °F (1979)
Min Temperature 58 °F 66 °F 53 °F (1905)
Degree Days  
Heating Degree Days 0 0  
Month to date heating degree days 0  
Since 1 June heating degree days 4  
Since 1 July heating degree days 0  
Cooling Degree Days 8 14  
Month to date cooling degree days 136  
Year to date cooling degree days 536  
Since 1 June cooling degree days 438  
Growing Degree Days 23 (Base 50)    
Moisture  
Dew Point 51 °F    
Average Humidity 50    
Maximum Humidity 88    
Minimum Humidity 19    
Precipitation  
Precipitation 0.00 in 0.05 in 0.57 in (1928)
Month to date precipitation 0.40  
Year to date precipitation 3.60  
Snow  
Snow 0.00 in - - ()
Month to date snowfall  
Since 1 June snowfall  
Since 1 July snowfall  
Snow Depth -    
Sea Level Pressure  
Sea Level Pressure 30.29 in    
Wind  
Wind Speed 3 mph (SE)    
Max Wind Speed 16 mph    
Max Gust Speed 22 mph    
Visibility 10 miles    
Events Thunderstorm    
T = Trace of Precipitation, MM = Missing Value Source: NWS Daily Summary

Daily Weather History Graph

Daily Weather History Graph

Search for Another Location

Airport or City:

Trip Planner

Search our weather history database for the weather conditions in past years. The results will help you decide how hot, cold, wet, or windy it might be!

Date:

Astronomy

Jul. 10, 2013 Rise Set
Actual Time 5:58 AM MDT 8:20 PM MDT
Civil Twilight 5:29 AM MDT 8:49 PM MDT
Nautical Twilight 4:53 AM MDT 9:25 PM MDT
Astronomical Twilight 4:14 AM MDT 10:04 PM MDT
Moon 8:14 AM MDT (7/10) 9:39 PM MDT (7/10)
Length of Visible Light 15h 19m
Length of Day
14h 21m
Waxing Crescent, 5% of the Moon is Illuminated
Jul 10
Waxing Crescent
Jul 15
First Quarter
Jul 22
Full
Jul 29
Last Quarter
Aug 6
New

Hourly Weather History & Observations

Time (MDT) Temp. Dew Point Humidity Pressure Visibility Wind Dir Wind Speed Gust Speed Precip Events Conditions
12:15 AM 64.8 °F 56.1 °F 74% 30.31 in 10.0 mi Calm Calm - N/A   Clear
12:35 AM 65.3 °F 54.7 °F 68% 30.31 in 10.0 mi Calm Calm - N/A   Clear
12:55 AM 63.3 °F 55.4 °F 75% 30.32 in 10.0 mi Calm Calm - N/A   Clear
1:15 AM 63.9 °F 56.7 °F 77% 30.31 in 10.0 mi East 4.6 mph - N/A   Clear
1:55 AM 63.7 °F 56.3 °F 77% 30.31 in 10.0 mi Calm Calm - N/A   Clear
2:15 AM 61.3 °F 56.7 °F 85% 30.31 in 10.0 mi Calm Calm - N/A   Clear
2:35 AM 62.4 °F 55.8 °F 79% 30.31 in 10.0 mi Calm Calm - N/A   Clear
2:55 AM 61.3 °F 56.1 °F 83% 30.31 in 10.0 mi NNW 4.6 mph - N/A   Clear
3:15 AM 61.7 °F 54.1 °F 76% 30.30 in 10.0 mi Calm Calm - N/A   Clear
3:35 AM 60.1 °F 55.6 °F 85% 30.31 in 10.0 mi Calm Calm - N/A   Clear
3:55 AM 60.1 °F 54.9 °F 83% 30.31 in 10.0 mi Calm Calm - N/A   Scattered Clouds
4:15 AM 60.3 °F 55.2 °F 83% 30.31 in 10.0 mi Calm Calm - N/A   Overcast
4:35 AM 61.7 °F 56.3 °F 82% 30.31 in 10.0 mi Calm Calm - N/A   Mostly Cloudy
4:55 AM 59.9 °F 56.5 °F 88% 30.31 in 10.0 mi Calm Calm - N/A   Scattered Clouds
5:15 AM 59.0 °F 55.4 °F 88% 30.31 in 10.0 mi NNW 3.5 mph - N/A   Clear
5:35 AM 59.4 °F 54.5 °F 84% 30.32 in 10.0 mi Calm Calm - N/A   Clear
5:55 AM 58.1 °F 53.6 °F 85% 30.32 in 10.0 mi NNW 3.5 mph - N/A   Clear
6:15 AM 58.1 °F 53.6 °F 85% 30.32 in 10.0 mi Calm Calm - N/A   Clear
6:35 AM 58.3 °F 54.1 °F 86% 30.33 in 10.0 mi NNW 3.5 mph - N/A   Clear
6:55 AM 60.6 °F 55.4 °F 83% 30.32 in 10.0 mi Calm Calm - N/A   Clear
7:15 AM 62.2 °F 55.8 °F 79% 30.33 in 10.0 mi Calm Calm - N/A   Clear
7:35 AM 63.5 °F 56.8 °F 79% 30.34 in 10.0 mi SW 5.8 mph - N/A   Clear
7:55 AM 65.3 °F 57.0 °F 75% 30.34 in 10.0 mi Calm Calm - N/A   Clear
8:15 AM 67.3 °F 54.7 °F 64% 30.35 in 10.0 mi Calm Calm - N/A   Clear
8:35 AM 68.5 °F 55.4 °F 63% 30.35 in 10.0 mi South 3.5 mph - N/A   Clear
8:55 AM 70.9 °F 55.2 °F 58% 30.35 in 10.0 mi SSW 4.6 mph - N/A   Clear
9:15 AM 72.1 °F 55.8 °F 56% 30.35 in 10.0 mi South 4.6 mph - N/A   Clear
9:35 AM 73.4 °F 54.3 °F 51% 30.35 in 10.0 mi South 3.5 mph - N/A   Clear
9:55 AM 74.5 °F 52.7 °F 46% 30.35 in 10.0 mi Calm Calm - N/A   Clear
10:15 AM 75.7 °F 53.1 °F 45% 30.35 in 10.0 mi South 3.5 mph - N/A   Clear
10:35 AM 77.4 °F 53.1 °F 43% 30.35 in 10.0 mi SSE 3.5 mph - N/A   Clear
10:55 AM 79.0 °F 52.2 °F 39% 30.35 in 10.0 mi SSW 4.6 mph - N/A   Clear
11:15 AM 80.8 °F 52.5 °F 37% 30.34 in 10.0 mi South 5.8 mph - N/A   Clear
11:35 AM 80.8 °F 50.9 °F 35% 30.34 in 10.0 mi North 5.8 mph - N/A   Clear
11:55 AM 82.9 °F 50.7 °F 33% 30.33 in 10.0 mi Calm Calm - N/A   Clear
12:15 PM 82.9 °F 50.0 °F 32% 30.32 in 10.0 mi SE 4.6 mph 17.3 mph N/A   Scattered Clouds
12:35 PM 83.1 °F 49.6 °F 31% 30.31 in 10.0 mi SE 3.5 mph - N/A   Scattered Clouds
12:55 PM 85.6 °F 48.2 °F 27% 30.31 in 10.0 mi ESE 6.9 mph - N/A   Scattered Clouds
1:15 PM 85.5 °F 47.5 °F 27% 30.29 in 10.0 mi SE 9.2 mph - N/A   Scattered Clouds
1:35 PM 84.6 °F 47.3 °F 27% 30.29 in 10.0 mi ESE 9.2 mph - N/A   Mostly Cloudy
1:55 PM 86.0 °F 46.6 °F 25% 30.29 in 10.0 mi SSE 6.9 mph - N/A   Scattered Clouds
2:15 PM 87.1 °F 48.0 °F 26% 30.28 in 10.0 mi SSE 16.1 mph - N/A   Scattered Clouds
2:35 PM 86.5 °F 47.8 °F 26% 30.28 in 10.0 mi ESE 11.5 mph 17.3 mph N/A   Scattered Clouds
2:55 PM 86.7 °F 46.6 °F 25% 30.27 in 10.0 mi SE 5.8 mph 17.3 mph N/A   Scattered Clouds
3:15 PM 88.7 °F 46.4 °F 23% 30.26 in 10.0 mi SE 13.8 mph 21.9 mph N/A   Scattered Clouds
3:35 PM 87.8 °F 45.0 °F 22% 30.25 in 10.0 mi SSE 5.8 mph - N/A   Scattered Clouds
3:55 PM 88.9 °F 44.6 °F 21% 30.25 in 10.0 mi South 9.2 mph - N/A   Scattered Clouds
4:15 PM 88.2 °F 43.7 °F 21% 30.23 in 10.0 mi ESE 5.8 mph - N/A   Scattered Clouds
4:35 PM 88.7 °F 41.9 °F 19% 30.23 in 10.0 mi SE 6.9 mph - N/A   Clear
4:55 PM 88.5 °F 43.7 °F 21% 30.22 in 10.0 mi SE 11.5 mph 16.1 mph N/A   Clear
5:15 PM 88.3 °F 45.3 °F 22% 30.21 in 10.0 mi ESE 8.1 mph 18.4 mph N/A   Clear
5:35 PM 87.4 °F 44.2 °F 22% 30.21 in 10.0 mi East 5.8 mph - N/A   Clear
5:55 PM 86.9 °F 44.2 °F 22% 30.20 in 10.0 mi East 10.4 mph - N/A   Clear
6:15 PM 86.5 °F 44.8 °F 23% 30.20 in 10.0 mi ESE 9.2 mph - N/A   Clear
6:35 PM 86.0 °F 43.9 °F 23% 30.20 in 10.0 mi ESE 8.1 mph - N/A   Clear
6:55 PM 85.3 °F 44.6 °F 24% 30.21 in 10.0 mi ESE 8.1 mph - N/A   Clear
7:15 PM 84.2 °F 45.3 °F 26% 30.21 in 10.0 mi SE 11.5 mph - N/A   Clear
7:35 PM 83.1 °F 45.7 °F 27% 30.21 in 10.0 mi ESE 10.4 mph - N/A   Clear
7:55 PM 82.0 °F 46.4 °F 29% 30.21 in 10.0 mi ESE 10.4 mph - N/A   Clear
8:15 PM 80.8 °F 46.4 °F 30% 30.22 in 10.0 mi ESE 10.4 mph - N/A   Clear
8:35 PM 79.2 °F 47.1 °F 32% 30.22 in 10.0 mi ESE 8.1 mph - N/A   Clear
8:55 PM 77.4 °F 50.2 °F 38% 30.23 in 10.0 mi South 9.2 mph - N/A   Scattered Clouds
9:15 PM 76.3 °F 52.3 °F 43% 30.24 in 10.0 mi South 6.9 mph - N/A Thunderstorm Thunderstorm
9:35 PM 74.5 °F 53.4 °F 48% 30.25 in 10.0 mi SSE 5.8 mph - N/A   Clear
9:55 PM 74.8 °F 52.5 °F 46% 30.26 in 10.0 mi North 3.5 mph - N/A   Scattered Clouds
10:15 PM 73.8 °F 51.1 °F 45% 30.28 in 10.0 mi NNE 10.4 mph - N/A   Overcast
10:35 PM 71.8 °F 52.0 °F 50% 30.28 in 10.0 mi North 10.4 mph - N/A   Mostly Cloudy
10:55 PM 70.9 °F 51.8 °F 51% 30.29 in 10.0 mi North 11.5 mph - N/A   Mostly Cloudy
11:15 PM 70.2 °F 51.8 °F 52% 30.28 in 10.0 mi North 8.1 mph - N/A   Mostly Cloudy
11:35 PM 69.6 °F 51.1 °F 52% 30.28 in 10.0 mi North 8.1 mph - N/A   Scattered Clouds
11:55 PM 69.3 °F 50.9 °F 52% 30.27 in 10.0 mi NNE 10.4 mph - N/A Thunderstorm Clear